When you browse on this site, cookies collect data to enhance your experience and personalize the content and advertising you see.
Visit our Privacy Policy to learn more. By continuing to use the site, you agree to this use of cookies and data.
  • In Romania
  • List of Countries
  • For 7 days
  • Water Temperature
  • Satellite Maps
  • Weather Map
  • Weather Widgets
  • user-avatar
    Login

    Hourly Weather Koniusza

    Today, 10 December, Monday

    Time Temperature Precipitation Wind Pressure Humidity
    00:00 +3°C° 0.1 mm 4 mps 722 mmHg 84%
    01:00 +3°C° 0.1 mm 4 mps 722 mmHg 84%
    02:00 +2°C° 0.2 mm 5 mps 722 mmHg 83%
    03:00 +2°C° 0.2 mm 5 mps 722 mmHg 83%
    04:00 +2°C° 0.2 mm 5 mps 722 mmHg 82%
    05:00 +2°C° 0.2 mm 6 mps 723 mmHg 81%
    06:00 +2°C° 0.2 mm 6 mps 723 mmHg 80%
    07:00 +2°C° 0.2 mm 7 mps 723 mmHg 79%
    08:00 +2°C° 0.2 mm 7 mps 724 mmHg 77%
    09:00 +2°C° 0.2 mm 7 mps 724 mmHg 75%
    10:00 +2°C° 0.2 mm 7 mps 725 mmHg 73%
    11:00 +2°C° 0.2 mm 7 mps 725 mmHg 71%
    12:00 +2°C° 0.2 mm 7 mps 725 mmHg 69%
    13:00 +2°C° 0.2 mm 7 mps 726 mmHg 67%
    14:00 +1°C° 0.2 mm 6 mps 726 mmHg 70%
    15:00 +1°C° 0.2 mm 5 mps 727 mmHg 72%
    16:00 0°C° 0.2 mm 5 mps 727 mmHg 75%
    17:00 0°C° 0.1 mm 5 mps 727 mmHg 76%
    18:00 0°C° 0.1 mm 5 mps 727 mmHg 78%
    19:00 -1°C° 0.1 mm 4 mps 728 mmHg 79%
    20:00 -1°C° 0 mm 4 mps 728 mmHg 81%
    21:00 -1°C° 0 mm 4 mps 728 mmHg 82%
    22:00 -2°C° 0 mm 4 mps 728 mmHg 83%
    23:00 -2°C° 0 mm 4 mps 728 mmHg 84%

    Tomorrow, 11 December, Tuesday

    Time Temperature Precipitation Wind Pressure Humidity
    00:00 -2°C° 0 mm 4 mps 728 mmHg 84%
    01:00 -2°C° 0 mm 4 mps 728 mmHg 85%
    02:00 -1°C° 0 mm 3 mps 728 mmHg 86%
    03:00 -2°C° 0 mm 3 mps 728 mmHg 86%
    04:00 -2°C° 0 mm 3 mps 728 mmHg 87%
    05:00 -2°C° 0 mm 3 mps 728 mmHg 87%
    06:00 -2°C° 0 mm 3 mps 728 mmHg 87%
    07:00 -2°C° 0 mm 3 mps 728 mmHg 87%
    08:00 -1°C° 0.2 mm 3 mps 728 mmHg 85%
    09:00 -1°C° 0.2 mm 4 mps 728 mmHg 82%
    10:00 -1°C° 0.2 mm 4 mps 728 mmHg 80%
    11:00 -1°C° 0.3 mm 4 mps 728 mmHg 81%
    12:00 0°C° 0.3 mm 4 mps 728 mmHg 82%
    13:00 +1°C° 0.3 mm 3 mps 728 mmHg 82%
    14:00 +1°C° 0.1 mm 3 mps 728 mmHg 84%
    15:00 0°C° 0.1 mm 3 mps 728 mmHg 86%
    16:00 +1°C° 0.1 mm 2 mps 728 mmHg 88%
    17:00 +1°C° 0.2 mm 2 mps 728 mmHg 89%
    18:00 +1°C° 0.2 mm 2 mps 728 mmHg 90%
    19:00 -1°C° 0.2 mm 2 mps 728 mmHg 91%
    20:00 -1°C° 0.2 mm 2 mps 729 mmHg 92%
    21:00 -1°C° 0.2 mm 2 mps 729 mmHg 93%
    22:00 -1°C° 0.2 mm 2 mps 729 mmHg 93%
    23:00 +1°C° 0.1 mm 1 mps 729 mmHg 94%

    Day after tomorrow, 12 December, Wednesday

    Time Temperature Precipitation Wind Pressure Humidity
    00:00 0°C° 0.1 mm 1 mps 729 mmHg 94%
    01:00 0°C° 0.1 mm 1 mps 730 mmHg 94%
    02:00 0°C° 0 mm 1 mps 730 mmHg 94%
    03:00 0°C° 0 mm 1 mps 730 mmHg 94%
    04:00 0°C° 0 mm 1 mps 730 mmHg 94%
    05:00 0°C° 0 mm 1 mps 731 mmHg 94%
    06:00 0°C° 0 mm 1 mps 731 mmHg 93%
    07:00 0°C° 0 mm 1 mps 732 mmHg 93%
    08:00 0°C° 0 mm 1 mps 732 mmHg 92%
    09:00 +1°C° 0 mm 1 mps 732 mmHg 91%
    10:00 +1°C° 0 mm 1 mps 733 mmHg 90%
    11:00 +2°C° 0 mm 1 mps 733 mmHg 89%
    12:00 +2°C° 0 mm 1 mps 733 mmHg 88%
    13:00 +2°C° 0 mm 1 mps 733 mmHg 86%
    14:00 +2°C° 0.1 mm 1 mps 733 mmHg 88%
    15:00 +1°C° 0.1 mm 1 mps 733 mmHg 90%
    16:00 +1°C° 0.1 mm 1 mps 734 mmHg 92%
    17:00 +1°C° 0 mm 1 mps 734 mmHg 93%
    18:00 0°C° 0 mm 1 mps 734 mmHg 93%
    19:00 0°C° 0 mm 1 mps 734 mmHg 93%
    20:00 0°C° 0 mm 1 mps 734 mmHg 94%
    21:00 0°C° 0 mm 1 mps 735 mmHg 94%
    22:00 -1°C° 0 mm 1 mps 735 mmHg 94%
    23:00 -1°C° 0 mm 1 mps 735 mmHg 94%

    13 December, Thursday

    Time Temperature Precipitation Wind Pressure Humidity
    00:00 -1°C° 0 mm 1 mps 735 mmHg 94%
    01:00 -1°C° 0 mm 1 mps 735 mmHg 94%
    02:00 -1°C° 0 mm 1 mps 735 mmHg 94%
    03:00 -1°C° 0 mm 1 mps 735 mmHg 94%
    04:00 -2°C° 0 mm 1 mps 735 mmHg 94%
    05:00 -2°C° 0 mm 1 mps 735 mmHg 93%
    06:00 -2°C° 0 mm 1 mps 735 mmHg 93%
    07:00 -4°C° 0 mm 2 mps 735 mmHg 93%
    08:00 -3°C° 0 mm 2 mps 735 mmHg 90%
    09:00 -3°C° 0 mm 2 mps 735 mmHg 88%
    10:00 -2°C° 0 mm 2 mps 735 mmHg 86%
    11:00 -2°C° 0 mm 2 mps 735 mmHg 84%
    12:00 -1°C° 0 mm 2 mps 734 mmHg 82%
    13:00 -1°C° 0 mm 2 mps 734 mmHg 80%
    14:00 -2°C° 0 mm 2 mps 734 mmHg 82%
    15:00 -2°C° 0 mm 2 mps 734 mmHg 83%
    16:00 0°C° 0 mm 1 mps 734 mmHg 85%
    17:00 0°C° 0 mm 1 mps 734 mmHg 86%
    18:00 -1°C° 0 mm 1 mps 734 mmHg 87%
    19:00 -1°C° 0 mm 1 mps 734 mmHg 88%
    20:00 -1°C° 0 mm 1 mps 734 mmHg 88%
    21:00 -1°C° 0 mm 1 mps 734 mmHg 89%
    22:00 -2°C° 0 mm 1 mps 734 mmHg 89%
    23:00 -2°C° 0 mm 1 mps 734 mmHg 89%

    14 December, Friday

    Time Temperature Precipitation Wind Pressure Humidity
    00:00 -3°C° 0 mm 0 mps 734 mmHg 89%
    01:00 -3°C° 0 mm 0 mps 734 mmHg 89%
    02:00 -2°C° 0 mm 1 mps 734 mmHg 89%
    03:00 -2°C° 0 mm 1 mps 734 mmHg 89%
    04:00 -3°C° 0 mm 1 mps 734 mmHg 89%
    05:00 -3°C° 0 mm 1 mps 734 mmHg 89%
    06:00 -3°C° 0 mm 1 mps 734 mmHg 89%
    07:00 -3°C° 0 mm 1 mps 734 mmHg 90%
    08:00 -2°C° 0 mm 1 mps 734 mmHg 87%
    09:00 -2°C° 0 mm 1 mps 734 mmHg 85%
    10:00 -1°C° 0 mm 1 mps 734 mmHg 83%
    11:00 -1°C° 0 mm 1 mps 734 mmHg 82%
    12:00 -2°C° 0 mm 2 mps 734 mmHg 81%
    13:00 -2°C° 0 mm 2 mps 734 mmHg 80%
    14:00 -2°C° 0 mm 2 mps 734 mmHg 83%
    15:00 -3°C° 0 mm 2 mps 734 mmHg 86%
    16:00 -3°C° 0 mm 2 mps 734 mmHg 88%
    17:00 -3°C° 0 mm 2 mps 734 mmHg 90%
    18:00 -3°C° 0 mm 2 mps 735 mmHg 91%
    19:00 -4°C° 0 mm 2 mps 735 mmHg 92%
    20:00 -4°C° 0 mm 2 mps 735 mmHg 93%
    21:00 -4°C° 0 mm 2 mps 735 mmHg 93%
    22:00 -4°C° 0 mm 2 mps 735 mmHg 93%
    23:00 -4°C° 0 mm 2 mps 735 mmHg 93%

    15 December, Saturday

    Time Temperature Precipitation Wind Pressure Humidity
    00:00 -4°C° 0 mm 2 mps 735 mmHg 93%
    01:00 -4°C° 0 mm 2 mps 735 mmHg 93%
    02:00 -4°C° 0 mm 2 mps 735 mmHg 92%
    03:00 -4°C° 0 mm 2 mps 735 mmHg 92%
    04:00 -4°C° 0 mm 2 mps 735 mmHg 92%
    05:00 -4°C° 0 mm 2 mps 735 mmHg 92%
    06:00 -4°C° 0 mm 2 mps 735 mmHg 92%
    07:00 -4°C° 0 mm 2 mps 735 mmHg 92%
    08:00 -4°C° 0 mm 2 mps 735 mmHg 90%
    09:00 -5°C° 0 mm 3 mps 735 mmHg 88%
    10:00 -4°C° 0 mm 3 mps 736 mmHg 86%
    11:00 -4°C° 0 mm 3 mps 736 mmHg 85%
    12:00 -4°C° 0 mm 3 mps 735 mmHg 83%
    13:00 -2°C° 0 mm 3 mps 735 mmHg 81%
    14:00 -3°C° 0 mm 2 mps 735 mmHg 84%
    15:00 -3°C° 0 mm 2 mps 735 mmHg 86%
    16:00 -3°C° 0 mm 2 mps 736 mmHg 88%
    17:00 -3°C° 0 mm 2 mps 736 mmHg 89%
    18:00 -4°C° 0 mm 2 mps 736 mmHg 91%
    19:00 -2°C° 0 mm 1 mps 736 mmHg 92%
    20:00 -2°C° 0 mm 1 mps 736 mmHg 92%
    21:00 -2°C° 0 mm 1 mps 736 mmHg 93%
    22:00 -2°C° 0 mm 1 mps 736 mmHg 93%
    23:00 -2°C° 0 mm 1 mps 736 mmHg 94%
    Show more